Theta_e
344 349 355 354 353 352 351 350 349 349 352 354 355 355 355 353 352 349 349 349 352 350 355 354 354 354 353 353 354 355 356 356 358 356 357 357 357 357 357 356 356 354 358
347 349 356 353 352 351 350 350 350 352 354 356 357 356 356 355 355 354 354 353 353 349 352 356 355 353 352 353 353 352 352 354 355 354 355 356 357 356 356 355 355 353 356
346 349 350 353 351 351 351 351 351 353 355 356 355 354 353 352 351 350 350 352 351 352 349 353 355 352 352 351 351 351 353 354 353 353 354 350 351 356 355 355 355 355 355
347 345 347 352 351 351 352 351 352 354 356 354 354 353 352 350 348 347 347 348 347 350 349 349 352 351 351 351 351 351 351 352 353 352 348 347 349 354 354 353 353 354 353
343 346 347 352 351 352 352 351 352 354 354 354 353 352 350 348 347 350 350 351 348 346 348 348 349 349 350 349 350 352 355 354 353 347 343 342 344 354 354 353 352 352 352
342 342 351 352 352 353 352 351 352 353 353 354 352 351 349 347 349 352 350 351 348 348 346 346 348 349 349 348 350 351 352 352 348 342 343 347 345 353 353 353 353 352 353
340 343 346 352 352 352 352 351 352 353 353 352 351 350 348 347 349 350 349 349 348 347 347 347 346 348 348 348 348 350 351 351 341 340 341 343 345 352 351 352 352 352 352
342 342 345 351 352 352 351 351 352 353 353 351 351 350 347 346 347 347 346 347 348 348 347 346 347 349 348 349 350 350 352 350 344 343 340 341 348 350 349 351 351 351 351
342 341 341 343 348 351 350 351 352 352 352 352 353 352 349 346 346 346 347 346 345 346 348 348 347 348 348 349 349 349 350 348 338 343 343 342 350 349 348 349 350 350 351
340 340 337 338 341 342 343 350 351 352 352 352 351 351 351 348 348 347 347 347 345 346 346 348 347 348 347 348 348 351 352 349 338 339 342 343 350 347 347 348 351 350 350
337 337 336 336 337 339 340 344 349 351 352 352 350 351 350 342 341 342 343 346 348 345 345 346 347 346 348 348 348 350 345 336 337 338 340 349 349 348 348 349 350 350 350
332 333 336 336 335 337 343 339 339 340 341 344 345 344 344 340 336 340 343 350 348 348 346 345 345 349 347 335 334 341 337 333 334 336 338 348 348 348 348 349 349 348 348
331 332 334 335 336 336 337 337 335 335 336 337 340 340 342 341 336 339 337 338 336 344 337 336 334 332 334 332 332 328 331 329 330 333 339 347 348 347 347 348 349 347 347
329 330 332 333 333 333 334 336 334 334 334 334 335 336 337 335 339 337 334 331 331 332 333 332 330 329 329 330 329 328 328 325 326 330 333 343 346 345 346 347 347 347 347
327 328 330 330 331 331 333 332 332 333 334 334 334 337 337 337 336 335 336 333 332 333 334 332 332 330 329 329 324 327 326 325 326 328 326 338 343 344 345 346 346 346 346
326 326 329 327 328 329 331 329 331 333 334 333 335 338 339 340 337 337 337 337 335 336 334 333 330 329 327 326 327 324 327 325 325 326 325 329 341 343 343 343 345 345 344
325 327 327 327 330 330 330 328 329 332 333 333 336 338 339 340 339 338 336 335 336 340 330 328 329 326 326 328 328 328 326 327 326 326 325 325 333 341 342 343 342 343 343
326 326 328 332 331 329 330 331 332 330 334 333 335 339 343 341 340 339 337 338 337 338 328 329 327 326 329 329 328 327 327 326 327 326 325 325 327 329 337 342 342 341 341
326 327 327 330 329 330 329 331 330 332 330 331 334 340 340 344 344 340 339 338 337 336 331 331 329 326 325 327 328 327 328 327 326 329 325 324 324 326 326 337 342 341 341
326 328 329 330 330 330 330 331 330 329 334 333 334 339 340 341 344 341 339 338 338 336 334 330 329 331 329 328 330 329 326 327 326 325 327 326 324 324 324 325 332 334 341
326 326 329 329 329 332 330 329 329 328 329 333 334 339 341 342 342 341 339 337 338 331 330 333 330 328 328 330 328 325 326 328 327 325 327 326 326 326 325 325 327 329 332
326 326 327 331 331 333 333 330 329 329 329 333 333 335 342 342 342 342 341 337 337 335 332 333 331 331 330 332 327 323 319 321 326 328 328 327 326 328 328 327 326 327 327
326 327 327 330 333 333 335 331 332 334 333 331 332 333 335 343 344 343 343 340 337 339 334 335 333 331 328 329 327 323 314 314 320 326 328 329 329 330 331 330 329 328 326
325 329 329 329 334 335 336 334 332 331 330 335 333 334 336 340 342 343 342 340 338 340 339 337 337 334 332 328 329 330 326 324 318 317 327 328 330 330 330 331 332 332 332
327 330 330 329 334 336 337 336 334 333 333 333 336 333 335 335 339 339 336 334 340 338 337 337 336 334 333 330 329 327 326 324 324 320 318 323 327 326 326 327 328 326 330
330 330 333 330 331 337 338 337 336 336 337 337 337 336 335 336 339 339 337 335 339 340 338 336 336 335 334 334 331 329 326 323 320 319 316 318 318 320 319 318 318 318 323
Wind_Speed
5 10 15 15 14 13 12 12 13 13 13 12 12 12 13 13 12 12 11 11 9 10 9 11 10 10 10 12 12 11 11 11 12 13 12 11 11 13 12 13 11 9 11
14 10 16 15 15 14 13 13 13 13 11 11 12 13 14 13 13 13 11 9 8 10 8 9 11 10 10 11 10 10 10 10 9 11 11 11 11 12 11 12 11 8 10
14 11 12 16 15 14 14 13 12 12 9 11 13 13 13 13 13 13 12 11 11 10 9 8 10 9 9 9 9 8 7 5 5 5 9 4 5 11 11 11 10 10 9
14 9 9 17 15 15 14 13 13 11 12 12 12 13 13 12 11 11 10 10 10 9 9 8 8 7 8 9 10 7 5 3 6 10 5 4 7 9 10 9 8 9 9
10 10 11 17 16 15 14 13 13 12 12 12 11 12 12 11 11 10 9 8 9 8 8 7 7 6 6 8 9 8 10 8 12 9 7 5 4 8 10 8 7 9 7
9 7 15 17 16 16 14 13 13 13 11 11 11 11 10 9 9 10 10 9 9 9 8 6 5 5 5 7 8 6 8 13 10 6 6 6 4 8 9 8 8 8 7
10 7 11 17 16 16 15 14 13 13 11 11 10 9 8 8 8 8 9 10 8 8 7 7 5 4 4 5 5 6 6 15 6 6 5 4 4 7 9 8 7 7 7
14 7 9 16 16 16 15 14 14 12 10 9 9 8 6 5 5 5 6 7 7 6 5 4 3 6 5 5 5 8 11 12 8 5 5 4 7 7 8 8 8 8 7
13 10 6 7 12 15 14 13 13 12 10 8 6 6 6 4 3 2 3 4 4 3 3 3 3 3 3 3 5 6 5 18 5 3 5 3 7 8 8 8 8 8 8
11 10 8 7 6 6 7 12 11 11 11 10 8 7 6 6 4 3 3 3 1 2 2 2 2 2 3 5 4 4 7 14 6 5 3 2 7 8 8 8 9 8 8
8 9 7 7 6 6 6 8 10 12 11 11 9 8 6 3 4 5 5 3 2 1 2 2 4 5 4 6 6 4 7 3 5 3 2 7 8 11 9 9 10 10 9
11 10 11 9 8 7 7 6 6 6 4 5 5 6 5 5 5 5 6 8 6 3 3 7 6 6 5 2 4 2 3 4 4 4 2 9 8 11 12 12 12 11 10
15 11 13 13 12 10 7 5 3 3 4 4 6 6 4 4 3 3 2 4 2 5 3 4 4 4 5 4 3 3 6 5 3 3 5 9 9 8 10 12 12 11 11
15 16 14 12 12 12 5 6 6 5 5 5 6 6 5 3 4 5 4 5 4 3 4 4 3 4 5 6 5 7 6 4 4 3 5 10 8 9 7 7 10 11 11
15 13 15 13 13 12 10 7 6 7 7 7 5 7 7 4 5 4 4 4 4 4 4 4 4 5 3 5 4 9 7 6 6 4 3 12 9 9 10 11 9 11 10
16 16 16 13 14 12 11 10 8 7 8 5 6 7 9 5 5 4 4 4 4 4 5 5 5 5 4 3 5 7 9 7 7 6 4 5 10 8 9 9 9 9 10
16 18 16 14 15 15 14 11 8 7 6 5 7 6 7 7 7 7 4 4 4 4 4 3 3 3 1 2 4 4 6 7 6 6 5 4 6 11 11 11 11 11 11
13 18 16 14 14 14 12 9 8 5 8 6 6 6 8 7 7 6 4 4 5 3 4 3 4 2 2 2 1 4 4 5 6 6 5 4 4 5 10 13 13 13 13
14 16 14 14 15 14 8 7 7 7 5 5 5 6 8 7 7 6 5 4 4 3 4 3 3 3 2 2 3 3 4 5 8 7 7 7 6 6 4 13 15 15 14
15 16 18 13 15 13 8 5 4 4 4 4 5 5 8 6 7 6 4 5 5 4 3 3 4 3 3 3 3 3 2 3 3 5 8 6 6 6 5 6 6 7 15
17 16 16 15 11 9 4 5 3 6 3 2 4 7 7 6 7 7 5 5 5 5 6 6 4 4 3 1 2 3 3 4 5 5 4 7 7 7 6 6 5 4 6
19 19 18 19 15 13 10 7 4 4 3 3 3 5 7 8 7 6 6 5 5 3 4 5 5 3 2 3 3 1 3 4 4 1 1 3 6 4 6 8 8 8 6
19 20 20 20 19 17 15 5 3 3 2 2 3 4 6 8 10 9 6 6 5 4 5 5 5 6 4 1 3 5 1 4 2 2 0 3 4 3 3 5 7 8 8
23 18 19 19 17 16 16 14 16 10 9 8 7 4 4 5 3 6 5 3 5 6 6 6 5 4 4 4 2 2 1 3 3 3 1 3 2 2 2 3 1 6 6
19 19 15 14 14 15 15 15 13 12 9 5 5 7 3 3 4 4 2 5 5 4 5 0 6 6 1 3 3 1 1 1 2 2 3 3 3 2 1 2 4 4 5
15 13 15 16 16 17 16 15 16 17 12 8 5 5 5 5 4 4 11 5 6 6 4 2 3 3 3 1 4 5 3 3 3 2 3 4 3 3 2 1 3 4 4
Wind_Direction
156 140 135 129 120 114 109 101 93 87 85 82 81 76 75 71 71 73 74 77 80 85 77 103 95 87 83 83 82 84 83 83 93 93 89 85 76 100 92 97 97 98 106
135 139 134 132 122 117 110 103 101 97 96 93 85 88 83 71 73 71 70 74 86 86 82 95 98 90 81 77 79 79 76 81 91 101 90 91 85 88 99 99 98 100 107
133 135 136 129 125 122 117 112 107 105 101 94 92 88 85 82 77 71 65 65 66 86 89 77 88 84 78 72 73 73 73 79 94 102 106 83 76 87 91 97 106 107 106
132 132 134 133 133 128 125 121 116 114 102 101 98 96 90 83 76 75 71 73 74 78 96 98 85 78 69 64 61 62 57 59 83 103 106 80 88 92 93 97 106 112 116
130 132 145 139 138 134 129 125 123 115 106 103 98 93 89 86 81 78 78 76 82 86 91 97 96 82 64 57 57 46 40 62 105 78 74 71 53 95 106 96 96 101 111
140 131 144 143 142 135 133 130 124 117 116 112 108 105 102 93 93 93 93 90 89 87 99 104 104 106 88 71 67 62 54 70 62 66 66 55 53 86 91 93 93 98 97
141 139 142 144 143 140 136 135 129 128 131 126 121 121 119 113 104 100 100 97 94 101 114 127 139 135 80 62 60 67 55 108 97 69 76 82 83 92 97 93 90 92 89
141 139 146 148 149 144 143 142 140 135 136 133 135 131 119 117 115 109 99 95 98 103 101 106 128 139 119 96 74 68 65 104 92 112 116 123 112 109 110 115 114 108 103
144 144 143 150 156 149 148 148 143 145 142 141 146 143 148 153 143 145 107 99 95 78 84 69 57 61 77 116 105 82 106 119 126 151 126 116 107 104 104 113 112 109 121
149 146 152 157 150 145 156 153 153 156 155 159 172 182 171 195 190 212 181 129 135 98 38 20 353 339 354 333 68 67 126 133 126 126 105 119 111 97 87 109 118 111 114
155 157 158 158 161 159 159 168 165 173 173 178 186 193 202 218 208 221 233 232 204 213 287 281 303 309 330 316 25 114 128 97 128 113 98 110 105 101 100 108 113 118 119
170 178 169 166 174 169 175 170 169 187 187 190 193 204 200 210 211 216 237 233 219 214 269 295 294 302 305 293 92 191 133 137 115 127 168 135 126 125 126 126 125 122 116
181 173 179 175 177 174 184 175 180 181 191 203 205 205 217 208 241 219 209 255 242 233 231 246 270 294 306 310 65 95 128 161 138 153 181 147 142 135 138 144 142 135 134
181 183 181 182 175 183 165 179 188 186 191 201 210 199 208 205 207 227 198 221 235 231 242 252 255 239 266 270 291 174 154 169 151 166 192 157 158 152 140 131 137 137 138
181 184 186 177 180 187 172 183 189 204 195 203 198 199 204 202 211 215 216 213 230 214 220 238 252 262 257 245 160 144 150 169 176 175 172 168 173 163 157 153 154 149 149
181 185 184 180 183 182 183 188 195 200 204 186 213 212 198 199 193 185 225 214 224 217 227 202 206 213 217 207 176 153 175 180 184 167 180 167 177 185 169 167 166 171 168
188 186 182 180 180 184 192 188 195 206 202 189 212 205 187 190 179 171 188 235 220 223 169 179 206 208 251 198 228 191 168 190 178 180 184 179 175 186 192 184 184 186 192
172 183 184 183 177 182 189 183 195 200 206 202 201 189 190 187 182 183 184 211 219 171 192 204 188 183 241 255 307 240 184 179 190 182 185 185 187 185 199 199 196 196 199
178 177 181 176 179 180 185 176 171 179 187 193 188 180 188 193 188 184 196 221 234 222 185 208 249 148 204 232 243 247 245 200 190 180 188 197 200 192 199 211 204 204 205
185 182 182 184 182 179 174 170 179 178 196 198 202 188 189 193 193 189 202 205 204 214 187 196 203 215 201 213 272 293 301 250 170 186 191 192 204 202 200 210 213 216 214
188 181 187 183 189 172 162 177 183 196 189 191 199 196 196 208 200 195 203 205 211 184 200 196 169 193 248 159 43 337 308 243 217 204 185 198 195 202 194 214 212 218 222
191 192 187 190 181 187 189 190 171 159 197 166 181 205 191 200 214 198 206 211 215 218 186 205 177 171 210 181 126 84 315 328 350 221 189 208 205 169 209 213 216 211 219
198 197 197 193 186 186 187 151 87 89 50 158 222 215 201 198 201 209 197 194 195 237 221 217 201 183 185 215 127 146 118 234 324 324 315 265 263 237 225 217 218 214 209
208 195 198 195 192 193 181 180 188 190 193 212 209 219 198 196 76 75 34 337 267 224 211 208 186 200 181 187 122 209 250 126 187 307 328 253 306 233 196 255 300 232 221
204 201 197 194 194 192 190 195 192 193 190 169 170 199 127 91 147 116 143 243 260 278 269 33 354 279 320 115 67 221 99 140 171 171 258 310 331 298 284 168 200 243 244
208 200 192 192 195 194 192 194 198 199 187 187 162 139 159 147 147 138 258 272 263 209 211 161 176 333 9 194 191 222 171 170 193 177 203 245 249 285 283 333 313 309 269